METEOR 2-8 DEB

Satellite information

Favourite Embed

Satellite Type and Status

DEBRISIN ORBIT

Key statistics

Satellite METEOR 2-8 DEB at a glance.

Uptime

15753

Days in orbit

Revolutions

≈ 14.3

Per day

Orbit

LEO

Low Earth Orbit

Inclination

82.5

Latest

Satellite identification and parameters

Extended collection of information and parameters for METEOR 2-8 DEB.

Object identification

Identified? True

Debris? True

Object name: METEOR 2-8 DEB

International designator: 1982-025AS

Object number (NORAD): 36356

Object ID (CCSDS): 36356

Country: COMMONWEALTH OF INDEPENDENT STATES (CIS)

Current information (Y/N): Y

RCS size: SMALL

Orbital parameters

Period: 101.022 minutes

Inclination: 82.5152 deg

SMA: 7185.163 km

Apoapsis: 812.503 km

Periapsis: 801.552 km

RAAN: 167.7276 deg

Eccentricy: 0.000762

Argument of periapsis: 156.6323 deg

Mean anomaly: 203.5208 deg

Mean motion: 14.25436461 rev/day

Mean motion (dot): 0.00004993 rev/day2

B* drag term: 0.0021084 1/REarth

Two-line elements (TLE)

Creation date: May 8, 2025, 10:26 p.m.

Reference frame: TEME

Reference center: EARTH

Epoch: May 8, 2025, 8:47 a.m. UTC

TLE line 0: 0 METEOR 2-8 DEB

TLE line 1: 1 36356U 82025AS 25128.36620073 .00004993 00000-0 21084-2 0 9997

TLE line 2: 2 36356 82.5152 167.7276 0007620 156.6323 203.5208 14.25436461883280

Live tracking on map

Real-time ground track for satellite METEOR 2-8 DEB.

In-orbit conjunctions

A list of the most updated potential collisions computed for object METEOR 2-8 DEB.

Target Orbit TCA Probability of collision Miss distance Type
TECHSAT 1B SSO 2025-03-03 21:23:26 0.0001868458 333.0 (m) PAYLOAD
FENGYUN 1C DEB SSO 2024-11-12 13:56:27 0.0002643033 309.0 (m) DEBRIS
FENGYUN 1C DEB SSO 2024-08-01 15:44:50 0.0003724079 49.0 (m) DEBRIS
FENGYUN 1C DEB SSO 2024-07-28 13:10:33 0.000223718 111.0 (m) DEBRIS

Associated space launch

Second generation soviet meteorological satellite

METEOR 2-8 DEB was lifted into orbit during the mission ‘Tsiklon-3 | Meteor-2 8’, on board a Tsiklon-3 space rocket.

The launch took place on March 25, 1982, 9:50 a.m. from 32/1.

For more information about the launch, click the button.

Launch to space Tsiklon-3 | Meteor-2 8
Tsiklon-3 | Meteor-2 8

Agency: N/A

Status: Launch Successful

Launch date: March 25, 1982, 9:50 a.m. UTC

Rocket: Tsiklon-3

Launch pad: 32/1

Location: Plesetsk Cosmodrome, Russian Federation

...

Latest news about this satellite

There are no fresh news available about this satellite. Check back as we update our databases every day.


Newsletter sign-up

Weekly statistics, charts and insights to help you stay on top of the space industry.